Zurück zum Katalog

HJS-4A

AktivWissenschaftLEO
NORAD 58691·PAYLOAD·🇨🇳 China

Gestartet Dec 30, 2023 von Jiuquan Satellite Launch Center

Loading…

Nächste Überflüge (nächste 24 Stunden)

TLE

AktuellSource: Space-Track

Epoche: Sep 14, 2026, 15:00 UTC

1 58691U 23212A   26257.62543390 -.00000115  00000-0  23958-4 0  9992
2 58691  50.0023  16.0683 0000697  68.0154 292.0798 13.41461889133257

Verfolge HJS-4A in Echtzeit mit AllMySat

Download on the App Store